Weather observations for the past three days for
Craig-Moffat Airport
Metric (Imperial)
Date Time (mdt) Wind (kph) Vis. (km) Weather Sky Cond. Temperature (ºC) Relative Humidity Wind Chill (°C) Heat Index (°C) Pressure Precipitation (cm)
Air Dwpt 6 hour altimeter (cm) sea level (mb) 1 hr 3 hr 6 hr
Max. Min.
21 10:53 NW 17 16.09 Overcast BKN046 OVC060 7.2 -2.2 52% 5 76.3 1015.4
21 09:53 NW 17 16.09 Overcast FEW034 OVC060 6.7 -2.8 51% 4 76.3 1015.1
21 08:53 W 15 16.09 Overcast OVC065 5.6 0 68% 3 76.28 1014.6
21 07:53 W 17 16.09 Overcast BKN065 OVC080 5 2.2 82% 2 76.25 1014.3
21 06:53 W 6 16.09 Overcast OVC065 4.4 2.8 89% 76.2 1013.5
21 05:53 W 13 16.09 Overcast BKN060 OVC090 5 3.3 5.6 3.9 89% 2 76.17 1012.6 0.08
21 04:53 SW 15 16.09 Overcast FEW025 BKN055 OVC080 5 2.8 86% 2 76.1 1012.0
21 03:53 SW 17 16.09 Light Rain OVC042 5 2.8 86% 2 76.07 1010.9
21 02:53 SW 6 16.09 Mostly Cloudy BKN040 5 2.8 86% 76.07 1009.7 0.08
21 01:53 S 6 16.09 Overcast BKN024 BKN042 OVC070 5 3.9 93% 76.07 1010.4 0.03
21 00:53 SW 7 16.09 Light Rain OVC046 5 3.9 93% 4 76.12 1011.1 0.05
20 23:53 NW 17 16.09 Light Rain FEW015 BKN024 OVC032 6.1 3.9 12.2 6.1 86% 3 76.1 1011.0 0.15 0.15
20 22:53 W 24 16.09 Light Rain BKN035 OVC050 7.2 3.3 77% 4 76.1 1011.2
20 21:53 W 13 16.09 Overcast OVC055 8.9 1.7 61% 7 76.07 1010.9
20 20:53 NW 11 16.09 Overcast OVC055 9.4 1.7 59% 8 76.02 1010.4
20 19:53 NW 13 G 31 16.09 Overcast OVC049 10 2.8 61% 8 76 1009.9
20 18:53 NW 30 G 46 16.09 Overcast OVC047 11.1 3.3 59% 75.9 1008.8
20 17:53 NW 24 G 43 16.09 A Few Clouds FEW050 12.8 5 18.9 10.6 59% 75.87 1008.0
20 16:53 N 37 G 57 16.09 Partly Cloudy and Breezy FEW034 SCT070 11.7 5 64% 75.79 1007.0
20 15:53 NW 33 G 56 16.09 Mostly Cloudy and Breezy FEW043 SCT090 BKN110 14.4 5.6 56% 75.77 1005.9
20 14:53 Calm 16.09 Fair CLR 18.9 7.2 47% 75.72 1004.1
20 13:53 W 7 16.09 Fair CLR 17.2 6.1 48% 75.74 1004.9
20 12:53 Vrbl 6 16.09 Fair CLR 15.6 5.6 52% 75.87 1007.1
20 11:53 NW 7 16.09 A Few Clouds FEW034 14.4 5.6 15 5.6 56% 76 1008.7
20 10:53 NW 9 16.09 Partly Cloudy SCT031 12.8 5 59% 76.05 1009.6
20 09:53 Calm 16.09 Partly Cloudy SCT030 10.6 3.3 61% 76.05 1010.0
20 08:53 SW 15 16.09 Overcast OVC024 8.3 5.6 83% 6 76.1 1010.1
20 07:53 SW 7 16.09 Overcast OVC020 8.3 5.6 83% 7 76.07 1009.9
20 06:53 N 6 16.09 Fair CLR 6.7 3.9 83% 76.05 1009.5
20 05:53 W 6 16.09 Mostly Cloudy BKN110 6.1 5.6 9.4 6.1 97% 76.05 1010.0 0.08
20 04:53 NE 6 16.09 Mostly Cloudy FEW075 BKN110 7.8 6.7 93% 76.02 1009.4 0.03
20 03:53 N 6 16.09 Light Rain BKN055 BKN065 OVC090 8.9 7.2 89% 76.12 1011.1 0.03
20 02:53 E 6 16.09 Overcast FEW080 OVC100 8.9 7.2 89% 76.15 1009.8 0.03 0.03
20 01:53 W 7 16.09 Overcast BKN060 BKN075 OVC100 8.9 7.2 89% 8 76.23 1010.6
20 00:53 W 6 16.09 Mostly Cloudy SCT095 BKN110 8.3 6.7 90% 76.2 1010.7
19 23:53 Calm 16.09 Partly Cloudy FEW075 SCT095 SCT120 9.4 6.1 18.3 8.3 80% 76.17 1009.6 0.13
19 22:53 Vrbl 6 16.09 Mostly Cloudy FEW090 BKN110 10.6 5.6 71% 76.17 1010.3
19 21:53 W 20 G 37 14.48 Thunderstorm Light Rain FEW036 BKN075 OVC090 11.1 6.7 75% 76.23 1010.3 0.13
19 20:53 N 9 16.09 Overcast OVC110 15.6 3.3 44% 76.05 1007.6
19 19:53 SE 6 16.09 A Few Clouds FEW110 15 7.2 60% 76.02 1008.2
19 18:53 NE 11 16.09 Fair CLR 17.2 6.1 48% 76.02 1007.9
19 17:53 NE 11 16.09 Partly Cloudy SCT110 16.1 7.8 22.2 11.1 58% 76.1 1010.1 0.05
19 16:53 E 6 16.09 Overcast OVC110 15 6.7 58% 76.12 1011.4 0.05
19 15:53 W 44 G 74 16.09 Light Rain and Windy SCT065 BKN090 OVC110 12.8 5.6 62% 76.23 1012.2
19 14:53 S 54 G 78 12.87 A Few Clouds and Windy FEW110 20.6 4.4 35% 76 1007.0
19 13:53 S 35 G 54 16.09 A Few Clouds and Breezy FEW100 21.1 3.9 32% 76 1007.3
19 12:53 SW 39 G 57 16.09 Partly Cloudy and Breezy FEW060 SCT080 20 3.3 33% 76.02 1007.4
19 11:53 SW 31 G 46 16.09 A Few Clouds FEW120 21.7 3.9 22.2 8.3 31% 76.02 1006.8
19 10:53 W 24 16.09 Overcast FEW070 OVC090 17.8 3.3 38% 76.07 1008.1
19 09:53 W 22 G 37 16.09 Fair CLR 19.4 5.6 41% 76.07 1007.9
19 08:53 Calm 16.09 Fair CLR 16.1 4.4 46% 76.12 1009.4
19 07:53 NE 9 16.09 Fair CLR 13.3 5 57% 76.15 1010.3
19 06:53 E 7 16.09 Mostly Cloudy BKN090 11.1 3.9 61% 76.12 1008.8
19 05:53 E 9 16.09 A Few Clouds FEW100 8.3 3.9 13.3 5.6 74% 7 76.12 1008.9
19 04:53 Calm 16.09 Fair CLR 6.1 3.3 82% 76.17 1010.0
19 03:53 N 7 16.09 Fair CLR 9.4 5 74% 9 76.15 1009.0
19 02:53 SE 6 16.09 A Few Clouds FEW120 11.1 5 66% 76.17 1008.8
19 01:53 SW 9 16.09 A Few Clouds FEW120 10 5 71% 9 76.2 1009.6
19 00:53 Calm 16.09 Mostly Cloudy BKN100 11.7 5.6 66% 76.23 1010.1
18 23:53 E 7 16.09 Overcast OVC100 13.3 5 22.8 12.2 57% 76.25 1010.2 0.1
18 22:53 SE 15 16.09 Mostly Cloudy BKN100 BKN110 13.9 5 55% 76.25 1010.6
18 21:53 Vrbl 6 16.09 Overcast FEW070 BKN095 OVC110 13.9 6.1 60% 76.28 1011.3
18 20:53 E 11 16.09 Mostly Cloudy BKN100 13.9 7.2 64% 76.28 1012.2 0.1
18 19:53 SW 15 16.09 Overcast BKN070 OVC085 12.8 7.2 69% 76.3 1013.8 0.1
18 18:53 W 24 G 43 16.09 Mostly Cloudy FEW080 BKN100 BKN120 20.6 -0.6 24% 76.12 1010.7
18 17:53 S 13 16.09 Fair CLR 22.2 0 24.4 18.9 23% 76.12 1010.7
18 16:53 W 28 16.09 Fair CLR 22.8 -2.2 19% 76.15 1010.6
18 15:53 W 26 G 48 16.09 Fair CLR 23.9 -2.2 18% 24 76.17 1010.6
18 14:53 W 31 G 46 16.09 Fair CLR 24.4 -0.6 19% 25 76.23 1011.2
18 13:53 W 24 G 33 16.09 Fair CLR 22.8 0 22% 76.3 1012.5
18 12:53 W 20 16.09 Fair CLR 21.1 0.6 26% 76.38 1013.6
18 11:53 SW 11 16.09 Fair CLR 19.4 0 20 0 27% 76.43 1014.4
Date Time (mdt) Wind (kph) Vis. (km) Weather Sky Cond. Air Dwpt Max. Min. Relative Humidity Wind Chill (°C) Heat Index (°C) altimeter (cm) sea level (mb) 1 hr 3 hr 6 hr
6 hour
Temperature (ºC) Pressure Precipitation (cm)